Theta_e
323 323 324 324 325 326 327 327 327 327 328 329 328 327 326 326 325 325 325 324 323 323 322 322 322 322 321 320 319 319 318 317 317 317 316 315 314 314 313 312 311 311 312 311 311 311 309 309 309 310 311 310 311 311 310 310 310 310 311 311 310 311 310 309 307 308 312 315 315 314 316 317 314 315 315 317 319 322 319 323 325 326 325 325 325
323 322 323 323 324 325 325 326 327 327 328 328 328 326 326 325 327 325 325 324 323 322 321 322 322 322 321 320 319 318 317 316 316 316 314 314 314 313 313 311 311 310 311 309 310 310 311 309 308 309 309 307 310 308 309 308 308 308 309 310 308 310 312 309 307 306 306 311 311 314 313 315 311 315 316 316 317 318 316 317 319 320 319 320 320
321 323 323 324 324 324 324 324 325 326 326 326 327 326 326 326 326 325 324 324 323 323 321 322 322 322 321 320 319 318 317 316 316 315 314 313 312 313 313 312 311 311 310 309 308 309 309 309 309 310 310 309 309 310 311 309 309 308 309 309 308 309 309 309 306 305 305 306 310 309 310 312 313 312 313 314 315 314 313 314 315 317 318 320 321
322 322 323 324 325 325 325 324 325 325 325 325 326 327 326 326 326 325 324 324 323 324 323 322 322 321 320 320 319 318 317 316 315 315 314 313 312 311 311 312 311 310 309 309 307 308 308 307 308 308 309 308 309 308 308 309 309 308 309 309 310 309 310 310 309 307 306 304 308 307 309 309 310 311 312 312 312 312 313 314 315 315 316 316 319
321 322 322 322 323 324 324 324 324 325 324 325 326 326 326 326 326 324 324 323 324 324 322 323 322 321 320 319 319 318 317 316 315 314 314 313 312 312 311 311 311 310 309 309 307 308 306 307 306 307 307 307 308 308 308 308 307 307 307 307 306 307 309 309 309 309 307 306 307 309 310 309 309 310 310 309 309 310 312 312 313 314 316 318 319
310 313 319 322 323 323 323 324 323 324 325 325 326 326 325 325 325 325 323 322 323 324 323 323 322 320 320 320 319 317 317 316 315 314 313 313 313 312 311 311 310 309 308 307 306 306 306 305 305 306 306 306 306 307 308 307 307 307 307 306 306 307 307 308 308 307 307 306 307 307 309 307 308 309 310 310 309 308 309 311 312 312 313 314 316
309 309 311 315 318 322 323 324 324 325 324 325 326 326 325 325 324 324 324 323 323 323 323 322 322 320 320 319 318 317 316 316 315 314 313 312 312 311 311 310 309 308 306 305 305 305 304 304 305 305 304 305 305 305 306 307 307 307 307 307 307 307 306 306 306 306 305 305 305 306 306 308 308 306 309 310 309 308 307 308 309 311 315 316 317
311 310 310 311 312 314 317 320 323 325 324 325 324 325 324 324 324 325 324 323 322 322 322 322 321 319 319 319 318 318 316 315 315 314 313 312 312 311 311 309 307 307 306 305 305 304 304 304 304 303 303 304 304 304 304 304 304 305 306 307 307 306 305 305 305 304 304 304 303 304 305 305 306 308 308 308 308 308 309 309 307 309 310 313 314
309 310 311 312 311 312 313 314 317 320 322 323 324 324 324 324 324 323 323 323 323 322 323 322 320 319 319 319 317 316 316 315 314 313 313 312 312 310 308 306 306 305 305 304 304 304 304 304 303 303 302 299 299 298 298 299 299 299 302 303 303 304 305 305 304 303 303 303 303 305 304 304 305 306 305 306 305 306 310 310 308 308 308 309 311
308 308 307 309 311 312 313 314 314 315 317 319 321 323 323 323 323 323 323 323 323 322 322 322 320 317 316 315 315 315 315 314 310 303 306 311 310 308 307 306 305 304 303 303 303 303 303 303 304 299 300 299 298 296 294 295 296 299 300 301 301 302 302 302 302 303 303 301 302 302 302 302 303 305 305 307 308 309 307 308 307 308 308 307 309
307 307 307 308 309 310 312 313 315 314 315 316 318 319 321 323 323 322 322 323 322 322 321 319 319 317 316 315 315 315 314 311 296 295 295 299 307 307 306 305 304 303 303 302 302 302 303 302 303 302 302 300 301 294 293 293 294 294 294 295 296 298 298 298 299 301 300 301 302 302 302 302 303 305 305 305 306 306 306 307 306 306 305 303 303
306 306 306 307 307 308 309 310 311 313 316 316 316 317 319 321 322 322 321 321 321 322 320 320 319 318 317 315 315 313 313 299 293 293 294 295 299 306 305 305 303 303 302 302 301 301 302 302 302 303 303 302 300 299 298 294 293 293 292 292 292 292 293 297 297 298 300 299 300 301 302 301 302 304 304 305 305 305 306 306 305 305 304 304 304
306 306 306 306 306 308 308 309 309 311 313 315 317 318 318 319 320 321 321 322 321 320 319 317 317 317 317 315 314 313 310 294 293 293 293 293 293 299 304 304 302 302 302 301 301 301 301 301 301 301 302 301 299 301 301 302 296 292 292 293 292 292 291 290 291 297 298 298 298 299 300 302 302 303 305 305 306 303 303 302 303 303 304 303 304
306 306 306 306 306 307 308 309 309 310 312 314 316 316 317 317 319 320 320 320 320 320 319 318 317 316 315 314 313 312 304 294 292 292 292 291 290 295 303 302 301 301 300 301 301 301 301 301 300 300 301 301 301 301 301 301 301 301 301 301 301 299 293 290 290 291 294 297 297 296 299 301 299 302 304 305 303 301 301 301 302 301 301 302 305
306 306 306 307 308 308 308 308 309 310 311 312 314 315 315 316 317 318 318 318 318 318 318 317 317 315 314 312 310 307 301 292 292 291 291 291 289 293 302 301 301 301 302 302 301 301 301 301 301 300 300 300 300 299 298 298 299 299 299 299 300 301 302 302 301 300 298 298 298 298 299 299 300 301 302 302 302 302 302 302 301 302 301 303 303
304 305 306 307 308 308 308 308 309 310 311 312 313 314 315 316 316 317 317 316 318 319 318 317 315 313 312 311 308 302 298 291 291 291 291 290 289 300 301 301 301 301 301 301 301 301 301 301 301 300 300 299 296 292 294 297 297 297 297 298 299 300 300 298 296 296 299 300 301 300 301 301 295 297 297 297 298 300 300 301 302 300 298 297 296
304 304 305 306 307 309 309 308 308 309 311 311 311 313 315 315 316 316 316 315 315 316 317 316 314 312 309 307 302 298 296 293 290 290 290 289 292 300 301 300 300 300 301 301 301 301 301 301 301 299 298 298 294 290 290 291 296 296 296 296 297 297 298 299 296 293 292 292 291 291 291 290 291 292 292 291 295 296 297 296 296 298 296 295 297
303 304 305 307 307 308 309 308 308 309 310 310 312 313 315 316 316 316 315 314 314 315 314 313 311 309 306 303 301 298 297 294 290 290 290 289 294 299 299 299 299 300 300 301 302 301 301 299 298 298 298 298 292 289 289 292 295 295 295 294 294 295 296 298 299 299 293 291 291 291 291 291 291 291 291 291 291 293 295 293 296 297 295 295 295
304 304 306 307 307 308 308 309 309 309 309 311 312 313 314 315 315 315 314 315 314 314 312 310 307 305 304 301 298 297 296 294 290 290 290 289 295 300 299 298 298 299 300 300 301 301 300 299 297 297 297 296 290 289 289 291 294 294 294 293 292 293 295 297 296 296 297 297 297 296 295 293 294 295 295 292 292 293 295 295 296 294 293 294 295
305 306 307 307 308 308 309 309 309 310 310 311 312 313 314 314 314 313 314 314 313 311 308 307 304 302 302 300 299 298 296 295 294 289 290 290 290 298 298 297 297 298 299 298 298 298 298 299 297 291 290 289 288 288 288 288 292 293 293 291 291 291 295 295 295 295 295 294 295 295 295 296 296 296 296 296 297 297 296 296 296 295 293 293 295
305 306 307 307 307 308 308 309 309 310 311 312 313 313 313 312 312 313 311 310 308 306 304 303 301 300 301 301 300 300 299 297 295 289 290 290 287 290 297 298 298 298 297 296 296 296 296 297 299 294 288 288 288 288 288 288 288 291 291 290 291 292 291 291 292 290 291 292 292 292 292 293 294 295 295 295 295 296 296 296 297 296 295 294 293
306 306 306 307 307 308 309 309 310 311 311 311 311 311 312 312 311 310 307 304 303 302 302 301 301 300 300 299 299 300 300 298 296 290 290 289 289 288 295 298 296 295 294 295 295 296 296 297 299 294 287 288 287 287 287 287 287 290 290 288 288 287 289 290 290 290 290 290 290 290 291 291 292 293 294 294 295 295 296 296 297 297 297 297 295
306 306 306 306 307 307 308 309 309 310 310 311 311 310 310 309 308 306 305 303 302 301 301 300 299 298 298 299 300 300 299 297 293 295 289 290 288 289 288 292 290 294 295 294 295 296 298 298 298 291 287 287 287 287 287 287 288 289 287 287 287 287 288 289 289 289 289 289 289 289 290 290 291 291 292 293 294 295 295 296 297 297 297 297 298
306 306 306 306 307 307 307 308 308 309 309 309 309 308 306 305 304 303 302 301 301 300 300 299 298 297 296 297 298 298 299 299 292 291 293 287 289 288 287 287 288 294 295 295 296 296 297 297 294 288 287 287 287 287 288 288 289 287 287 287 287 287 289 289 288 288 288 288 288 288 288 290 291 291 292 293 294 295 296 296 296 296 296 296 297
305 305 306 306 307 307 307 307 308 308 309 308 307 304 304 303 301 301 301 300 299 298 298 298 297 297 296 296 297 297 297 298 296 291 289 290 288 288 287 287 287 287 293 296 296 296 291 288 288 288 288 288 287 287 288 288 287 287 287 287 288 290 289 289 289 289 288 288 288 288 289 290 291 292 294 295 295 295 295 295 296 296 296 296 297
304 304 305 306 306 305 305 306 307 307 308 308 306 305 303 301 300 300 300 300 299 298 297 297 296 296 296 296 295 296 296 297 297 297 293 292 291 288 287 288 289 289 290 292 290 289 288 288 287 287 288 289 291 291 291 291 288 288 287 288 290 290 290 289 289 289 288 289 288 289 290 292 292 293 294 294 293 293 293 293 293 292 293 293 293
303 305 305 305 306 306 305 305 306 306 306 305 304 302 301 301 300 299 298 297 297 296 296 296 295 294 293 295 295 295 295 295 296 296 297 297 298 297 297 296 291 289 293 296 292 294 292 291 291 289 288 287 287 287 288 289 290 291 291 291 292 292 292 291 291 290 289 289 289 290 291 292 293 292 292 292 292 292 292 291 291 291 291 292 291
303 303 304 305 306 306 305 297 301 304 303 303 301 300 301 301 299 297 296 295 295 295 294 294 294 293 293 293 293 293 293 294 294 294 295 296 297 296 296 296 296 296 295 295 294 292 292 290 290 293 292 291 291 291 291 291 290 290 290 290 290 291 290 290 290 290 290 290 290 290 290 291 291 291 291 291 291 291 292 291 290 290 291 291 290
302 303 304 305 305 304 304 304 304 302 300 300 301 301 300 299 298 297 298 297 295 294 294 294 294 295 294 294 293 293 293 294 295 290 293 288 289 294 294 294 294 294 291 287 289 291 291 292 291 290 290 288 288 288 289 289 289 290 290 290 290 290 290 290 289 289 290 290 289 289 289 290 290 290 290 289 290 290 291 291 291 290 291 291 289
303 303 303 303 304 304 304 303 302 299 299 297 295 293 288 290 296 298 298 292 291 292 292 295 297 296 295 295 297 294 293 294 287 286 287 287 287 286 287 287 287 288 287 286 287 289 289 289 289 289 288 288 287 287 287 288 287 288 288 288 288 289 289 289 289 289 289 289 289 288 288 288 288 289 289 289 289 290 291 289 290 291 289 288 288
302 302 302 302 301 304 303 301 300 299 298 296 295 295 296 294 287 287 290 291 290 289 290 290 290 291 295 292 291 286 287 286 286 288 287 287 287 287 287 287 287 287 287 287 288 289 289 289 288 288 288 288 287 287 287 287 287 287 288 288 288 288 287 288 288 288 288 288 287 288 287 288 287 287 287 288 288 289 290 290 290 290 289 289 288
300 301 302 302 300 298 300 299 298 297 296 296 296 295 294 293 291 289 287 288 289 289 289 289 289 289 290 291 292 292 288 286 287 287 287 287 287 287 287 287 286 286 287 286 287 289 289 289 288 288 288 287 287 287 287 287 287 287 287 287 287 288 287 287 288 288 287 287 287 287 287 287 287 287 288 288 288 288 289 289 289 289 289 289 289
300 300 300 298 297 294 296 296 296 296 295 295 295 294 294 293 292 292 291 288 287 287 287 288 288 288 287 287 288 289 289 288 287 286 287 287 287 287 287 286 286 286 285 288 289 289 289 288 288 287 287 287 287 287 287 287 287 287 287 287 286 287 288 288 288 288 287 287 287 287 287 287 287 287 287 288 288 287 288 288 289 289 289 288 288
299 297 296 296 295 295 295 295 296 297 296 296 296 296 293 293 292 291 290 290 290 289 288 287 287 287 286 287 286 287 287 287 286 286 287 287 287 287 287 288 287 286 286 289 289 289 289 288 288 288 288 287 287 287 287 287 287 287 287 287 287 287 288 288 287 287 287 287 287 287 287 287 288 288 287 288 288 288 288 287 288 288 288 288 288
295 291 290 292 296 296 297 297 296 296 295 294 293 292 292 292 291 290 290 289 288 288 288 289 288 288 289 288 287 286 286 286 286 287 287 286 287 287 286 291 290 290 291 292 290 289 288 288 287 287 288 287 287 287 287 287 287 286 286 286 286 287 287 286 286 286 286 287 287 287 287 287 287 287 287 287 287 287 287 287 288 288 288 288 288
295 296 296 295 296 297 296 296 296 296 295 295 294 294 293 292 291 292 292 291 291 290 290 290 290 287 284 287 285 286 286 286 287 286 287 286 286 286 289 290 289 289 289 290 289 288 288 288 288 288 288 287 287 287 287 287 286 286 286 286 285 286 286 286 286 286 286 287 286 286 286 286 287 287 287 287 287 287 287 287 288 288 288 288 289
297 297 296 295 295 295 296 296 296 296 292 293 294 294 293 293 293 293 293 293 292 292 292 292 292 291 288 291 286 285 286 287 286 286 286 287 287 288 292 291 290 288 289 288 289 288 288 288 288 288 288 287 287 287 287 287 287 286 286 286 286 285 285 286 286 286 286 286 286 286 286 286 287 287 287 286 287 287 287 288 288 288 288 288 287
296 296 296 295 295 296 295 296 295 291 293 293 294 294 293 294 294 293 292 292 293 293 293 293 291 292 290 292 291 292 293 287 286 286 286 286 289 292 292 291 290 289 289 289 289 289 288 288 288 287 287 288 287 288 287 287 286 286 285 285 285 286 286 286 286 286 286 286 286 286 286 286 287 287 287 286 286 287 287 287 288 288 288 288 288
294 288 287 289 291 295 295 294 294 294 294 294 294 294 292 293 292 292 294 293 293 294 293 293 293 293 294 294 294 292 291 293 293 293 292 293 293 292 292 292 291 290 289 289 289 289 288 288 288 288 287 287 287 287 287 286 286 286 285 285 285 286 286 286 286 285 285 286 286 286 286 287 287 288 288 287 287 287 287 287 287 287 287 288 288
295 295 292 289 293 293 293 292 293 294 293 295 294 294 292 292 292 293 294 293 293 293 294 292 293 292 294 291 291 291 293 292 292 292 292 292 292 291 292 291 290 290 289 288 289 289 288 287 287 287 287 287 287 286 286 286 286 286 286 285 285 285 285 285 285 285 285 286 286 286 287 287 288 288 288 288 288 288 288 288 288 288 288 289 289
295 295 291 291 291 294 293 293 293 294 293 293 293 294 293 293 294 293 294 293 293 293 293 296 295 293 289 285 283 283 290 292 291 292 292 291 291 291 291 291 290 290 290 289 289 288 288 288 287 287 287 287 287 286 286 286 286 286 285 285 285 285 285 286 286 286 286 286 286 286 287 288 288 288 287 288 288 289 289 290 289 289 289 289 289
295 294 294 293 292 294 294 293 293 293 294 292 295 293 295 294 294 294 293 292 293 293 293 294 295 292 285 282 284 283 290 293 290 291 290 292 291 290 291 290 291 291 290 289 289 288 288 287 287 287 287 286 286 286 286 286 286 285 285 285 285 285 285 285 286 286 286 286 286 286 287 287 287 288 289 289 289 289 290 290 290 290 290 289 289
295 294 294 295 295 295 294 295 295 295 293 293 292 291 293 294 294 295 293 293 293 293 293 293 293 294 290 285 286 285 292 292 289 290 290 290 291 290 290 290 291 291 290 290 290 289 288 288 287 288 287 286 286 286 285 285 286 285 285 285 285 285 285 285 285 286 286 286 286 286 287 287 288 290 290 289 290 290 290 290 289 289 289 289 288
293 293 293 293 293 294 293 294 293 292 291 290 291 292 293 294 294 294 293 292 291 292 292 292 291 291 291 290 288 290 292 291 291 290 288 288 289 289 290 290 290 290 290 290 290 289 288 288 288 288 287 287 287 286 286 286 286 285 285 285 284 284 285 285 285 285 286 285 285 286 287 288 289 290 289 289 289 288 288 288 288 289 289 288 288
295 294 294 294 294 293 293 293 292 292 291 293 292 293 292 293 292 292 292 291 290 291 290 290 290 290 290 290 290 289 290 290 289 288 288 288 288 288 289 289 289 289 289 290 290 289 289 288 288 287 287 287 287 287 286 287 286 286 286 285 285 284 284 285 286 286 286 286 286 287 287 288 289 289 289 289 289 289 289 289 289 287 288 288 287
294 294 293 293 293 292 292 293 291 292 292 292 292 291 292 292 291 290 289 289 289 290 291 290 289 289 289 289 289 288 288 288 289 288 288 288 288 288 288 288 288 288 289 290 289 289 289 288 288 287 287 287 286 286 286 286 287 287 287 286 286 285 286 286 286 286 286 287 287 287 287 288 288 288 288 288 289 289 289 289 289 289 288 287 287
294 293 292 292 291 290 290 291 291 290 290 290 290 289 289 289 289 288 286 286 287 287 289 289 290 288 287 287 287 287 287 287 287 287 287 286 286 287 287 286 287 288 288 289 288 289 288 288 288 288 287 287 286 286 286 287 287 287 286 286 286 286 286 286 287 287 287 288 288 288 287 287 287 288 288 288 288 289 289 289 289 288 288 288 287
292 291 291 291 291 291 290 290 289 287 288 288 287 287 287 287 288 287 287 288 287 287 288 288 288 287 286 286 286 286 286 287 287 287 287 287 286 286 285 285 286 287 288 288 289 289 288 288 288 288 287 287 286 286 286 286 286 286 286 286 286 286 286 286 287 287 288 289 288 288 288 288 288 288 288 288 288 288 288 288 288 289 288 288 288
290 290 289 289 289 289 289 288 288 288 288 288 287 287 286 287 287 287 288 288 287 287 288 287 287 286 286 285 285 286 286 286 286 286 286 286 286 286 285 285 285 286 287 288 288 288 288 289 288 288 287 287 287 287 286 286 286 286 286 286 286 286 286 286 287 287 288 289 289 289 288 289 288 287 287 288 288 288 288 288 288 287 287 287 287
289 289 289 289 288 288 288 288 288 288 287 287 287 286 286 286 286 286 286 287 287 287 288 287 286 286 286 286 285 284 284 284 285 285 285 285 285 285 285 284 285 286 287 287 288 288 289 289 289 289 288 288 287 287 287 287 286 286 286 285 285 286 286 286 286 286 288 289 289 289 289 288 288 288 288 288 287 287 287 287 287 287 287 287 286
287 287 287 287 288 288 288 288 287 287 287 287 287 286 286 286 286 286 286 286 286 285 285 286 286 285 285 284 284 283 283 284 284 285 285 285 284 284 284 284 284 285 286 287 288 288 288 288 289 289 289 288 287 287 287 287 287 286 285 285 285 286 286 286 287 287 287 288 289 289 289 288 287 287 287 287 287 287 287 287 287 287 287 287 286
Wind_Speed
7 7 7 8 9 9 9 9 10 9 9 8 8 8 8 9 9 10 10 10 10 11 11 12 12 11 11 10 10 9 9 8 6 6 5 6 5 5 6 6 5 4 4 5 4 2 1 0 1 0 1 3 3 3 3 3 4 4 5 5 5 5 6 8 9 9 7 6 6 7 7 8 9 8 9 7 7 7 8 9 9 9 9 9 10
7 7 8 8 10 10 10 10 9 8 9 9 9 8 8 9 9 9 10 11 11 12 13 11 11 12 11 11 10 10 9 9 8 7 6 7 6 5 5 5 5 4 3 3 3 2 2 1 0 0 1 3 3 6 4 3 4 5 4 4 6 6 5 7 9 9 10 7 7 7 8 8 10 7 7 7 8 8 10 9 9 10 10 10 10
4 5 7 8 8 9 9 10 10 10 10 9 9 9 9 9 9 10 10 10 11 12 13 12 12 12 12 11 11 10 10 9 8 8 7 8 7 7 6 6 5 5 4 3 2 2 2 1 1 0 1 2 3 4 4 5 5 5 5 5 6 7 7 7 8 9 10 9 8 9 8 7 7 8 9 8 8 9 10 10 9 8 9 9 9
1 3 4 5 6 7 8 8 9 10 10 10 10 10 9 8 8 9 10 9 11 11 13 14 13 13 12 12 11 10 10 9 9 8 8 8 7 8 7 6 5 5 4 3 2 2 1 1 1 1 2 3 3 3 4 4 4 5 6 6 7 7 7 7 9 9 9 10 8 9 8 8 8 9 8 8 9 9 9 10 10 10 10 9 10
4 2 2 5 5 6 6 7 8 9 11 10 10 10 9 9 8 9 9 10 10 10 11 12 13 14 12 13 12 12 11 11 10 9 8 8 8 7 7 7 6 5 4 3 3 2 1 2 2 2 2 4 4 4 4 5 6 6 6 7 7 7 6 7 8 9 10 11 10 9 9 9 9 9 9 10 9 8 9 9 9 9 10 9 10
7 7 5 3 4 6 6 6 7 8 10 12 12 9 9 10 10 9 10 11 10 10 12 12 12 14 14 14 14 13 12 11 10 10 9 8 8 7 7 6 6 5 4 3 2 2 2 1 1 2 2 4 4 4 5 6 6 7 8 8 8 8 8 9 9 10 11 11 10 10 8 9 9 8 8 9 9 9 8 9 9 9 9 10 9
7 7 7 6 4 4 5 5 6 8 10 11 11 9 9 10 11 11 10 11 11 11 11 13 11 12 12 12 13 13 13 12 11 10 10 9 8 7 6 6 5 4 3 3 2 2 2 1 1 2 3 3 4 5 5 6 6 8 8 8 8 8 9 9 9 10 11 11 11 10 10 9 9 9 8 7 9 9 9 9 8 7 6 7 8
6 6 6 6 6 7 6 6 5 7 9 10 10 10 11 12 12 11 10 11 11 12 12 13 11 12 12 12 12 11 11 11 11 10 9 9 8 7 6 5 5 4 3 3 2 2 2 2 2 1 1 2 4 5 6 6 7 8 7 7 8 9 9 9 10 10 10 11 11 10 9 9 9 9 9 8 8 8 7 7 8 7 7 7 8
4 4 3 3 4 5 5 5 5 6 6 7 9 10 11 11 12 12 11 10 9 11 11 12 13 14 12 12 12 11 11 11 10 10 9 9 8 7 6 5 4 3 3 3 2 2 2 1 2 2 1 3 4 6 8 7 7 8 8 8 9 9 10 9 10 10 11 11 11 10 10 10 9 9 8 8 8 8 6 6 8 9 9 9 8
5 5 5 4 4 4 5 5 6 6 6 6 6 7 8 10 10 11 12 12 11 10 11 12 12 13 13 13 12 12 10 9 9 13 10 9 9 7 6 5 4 3 2 2 2 2 2 3 2 3 4 8 9 10 11 12 12 10 9 8 9 9 10 10 10 10 11 11 11 11 11 11 9 9 9 9 8 9 10 9 10 9 8 9 9
5 5 6 6 6 5 5 5 5 7 6 6 6 6 7 7 9 10 11 11 11 11 11 13 13 13 14 13 13 11 10 7 14 12 10 7 7 7 6 5 4 3 3 2 2 2 3 3 5 4 8 11 12 15 14 13 13 14 15 14 13 11 11 11 11 11 11 12 11 12 12 12 11 10 10 10 9 9 9 9 9 9 9 9 9
5 5 6 6 7 7 6 7 7 6 6 7 7 7 6 7 7 8 10 11 10 10 11 12 12 13 12 14 13 11 9 13 15 14 12 8 4 6 5 4 3 3 3 2 2 2 3 4 4 4 5 5 7 8 9 14 15 15 15 15 15 16 16 14 12 11 12 12 12 13 13 13 12 10 10 9 9 9 9 9 10 10 10 10 9
5 5 6 7 7 7 7 7 7 7 7 7 6 6 7 7 7 8 8 9 9 10 12 12 12 13 13 14 12 11 9 15 15 14 12 9 5 3 5 4 3 3 2 3 3 4 4 5 5 5 5 3 7 7 8 8 9 15 16 16 17 17 17 18 19 16 14 14 14 15 13 12 13 11 10 10 9 11 10 11 10 10 11 11 11
5 5 6 7 7 7 7 7 7 7 7 7 7 7 7 8 7 7 7 8 10 10 11 12 12 14 13 13 12 11 12 14 16 14 12 10 8 4 3 4 3 3 4 4 4 5 5 6 6 7 7 7 7 8 8 8 9 9 8 9 10 14 20 21 20 21 20 16 16 16 14 13 14 13 12 11 13 12 12 12 10 12 13 13 13
7 7 7 7 7 6 7 7 8 7 7 8 8 8 8 8 8 8 8 9 10 10 11 12 12 13 12 11 11 11 10 16 15 14 12 10 8 5 4 4 4 4 4 5 5 6 6 6 7 8 8 8 7 8 10 10 10 9 10 11 11 12 11 11 13 14 15 15 16 16 16 16 16 17 16 15 16 15 14 15 15 15 15 16 16
8 8 8 7 7 7 7 8 8 8 8 8 8 8 8 8 8 8 8 8 9 9 10 10 11 13 12 11 10 12 11 16 15 14 13 11 10 5 5 4 4 4 4 5 6 6 7 7 8 8 8 9 10 3 4 8 11 12 12 12 12 12 11 11 13 10 12 12 12 13 13 12 12 11 11 11 11 11 11 12 13 14 14 15 15
9 9 9 8 8 7 8 8 8 8 8 9 9 8 8 8 8 8 8 9 9 10 10 10 11 11 12 11 11 11 11 12 14 14 13 12 9 4 3 4 4 4 5 5 6 7 7 8 8 8 10 10 7 5 3 3 10 12 13 13 12 12 12 11 13 13 15 16 16 18 19 19 20 19 18 17 13 12 13 14 15 12 14 15 14
10 10 10 9 9 9 9 9 10 9 9 9 9 8 8 7 8 7 8 9 10 10 9 9 9 9 11 11 12 13 11 11 14 13 12 13 7 3 3 4 4 5 6 6 6 7 8 7 9 11 10 10 3 4 2 6 10 12 14 15 15 14 14 12 11 10 12 15 17 18 17 17 18 20 21 22 21 17 15 19 16 14 17 16 16
10 10 10 9 9 10 10 10 10 10 10 9 9 9 8 8 7 7 8 9 9 8 9 8 8 7 8 10 12 12 10 9 11 11 11 10 6 3 3 4 5 6 6 7 7 7 9 9 10 11 11 10 6 5 3 6 10 13 15 15 15 16 14 15 14 14 14 13 12 12 13 16 17 16 17 19 20 20 18 18 17 17 18 17 15
11 10 10 10 9 9 9 10 10 10 11 10 9 9 8 8 8 8 8 8 7 7 7 8 9 7 9 11 9 9 9 9 10 11 10 9 5 4 3 5 5 6 6 7 8 9 10 10 9 9 9 3 2 2 4 6 9 13 14 14 15 16 13 14 14 13 15 14 15 15 16 15 14 13 14 14 15 17 18 17 17 18 18 17 16
11 11 10 10 10 10 10 10 11 11 10 10 9 9 8 8 8 7 7 5 5 6 8 8 9 8 8 7 6 6 7 9 9 10 8 6 3 2 3 4 5 5 7 9 9 10 10 10 9 3 10 6 6 4 6 7 8 13 15 16 16 15 15 15 16 17 16 15 16 16 15 14 14 15 15 15 15 15 15 16 16 16 18 17 16
11 11 11 11 10 10 11 11 11 10 10 10 10 9 9 7 5 7 6 7 8 8 9 9 9 9 8 7 6 6 5 7 10 8 9 6 5 3 4 2 4 6 8 9 10 10 10 10 10 6 10 8 7 9 10 12 14 15 17 19 18 17 17 17 16 15 14 13 13 14 14 14 14 14 14 14 14 15 15 15 14 16 16 17 16
12 12 12 11 11 11 11 12 11 9 10 10 11 11 7 6 6 7 7 9 10 10 9 9 9 8 7 6 6 6 7 7 8 8 9 8 7 6 2 4 2 5 7 9 10 10 10 10 8 9 15 15 15 15 17 18 17 16 18 16 17 16 15 15 15 15 14 14 14 14 14 14 14 14 14 14 13 14 14 14 15 15 15 16 16
12 12 11 12 11 11 11 12 12 12 12 11 10 7 6 6 7 6 8 8 9 9 7 8 9 8 7 6 5 5 5 6 4 5 7 7 6 6 6 6 6 6 7 8 9 9 9 9 10 17 17 17 18 17 17 18 16 19 19 20 20 18 14 15 14 14 14 14 14 14 14 13 13 14 13 13 13 13 13 14 15 16 16 15 16
12 12 12 12 12 11 11 12 12 12 11 8 7 7 8 9 9 9 8 9 9 8 7 7 8 8 7 7 7 6 5 5 6 6 6 7 7 7 8 8 8 8 7 8 8 9 9 11 14 16 15 16 18 19 17 17 18 17 17 17 16 13 13 12 13 12 13 14 14 13 13 13 13 13 13 13 14 13 14 13 13 14 14 15 15
13 13 13 12 13 13 13 12 12 10 7 5 8 8 9 10 10 11 9 7 7 9 8 8 9 9 8 8 7 6 5 4 4 6 7 7 8 9 9 10 10 10 12 11 13 15 16 16 16 16 16 14 12 11 12 13 14 16 18 19 13 12 12 12 12 12 13 13 13 14 13 13 13 13 14 14 13 14 13 13 13 13 13 12 12
14 13 13 13 12 12 12 11 9 7 5 7 7 8 9 9 11 11 7 7 6 6 5 7 9 8 7 7 6 5 4 2 2 1 1 2 4 2 7 7 11 13 11 7 8 8 9 10 12 14 15 17 17 16 16 15 13 12 10 10 10 11 11 11 12 12 13 13 13 13 13 13 13 13 12 12 13 13 13 12 13 13 11 11 11
14 14 14 12 11 10 10 5 5 5 6 8 9 9 9 11 10 8 6 7 8 8 6 7 7 7 6 5 5 4 4 3 2 2 2 3 4 4 4 5 6 6 7 7 8 10 10 11 11 9 9 9 9 9 9 10 10 11 10 10 11 11 12 13 14 14 14 13 14 14 14 13 13 13 13 13 13 12 12 12 11 12 11 9 9
14 15 14 12 12 10 9 7 7 7 8 7 5 7 9 9 8 7 7 7 6 8 7 6 6 6 6 5 5 4 4 4 4 5 3 4 2 4 5 5 6 7 7 9 10 10 10 10 8 9 9 9 9 9 10 10 10 10 12 11 10 11 11 11 12 12 12 12 12 13 13 13 13 12 12 12 13 13 11 10 9 10 9 9 10
14 14 13 12 11 8 7 6 7 8 9 8 7 7 13 12 7 9 6 4 8 10 7 7 7 7 5 5 3 2 3 6 8 5 5 5 5 5 6 7 8 8 11 13 11 9 8 8 8 8 9 9 10 10 10 10 11 11 10 11 11 11 11 11 12 12 12 12 12 12 12 12 12 12 12 11 11 10 11 10 11 10 10 10 10
12 11 11 11 10 6 7 8 10 10 8 10 9 10 9 11 17 15 9 8 12 14 15 13 10 8 7 5 9 15 13 9 5 4 3 4 4 5 6 7 8 9 10 8 7 7 8 9 9 9 9 9 10 10 11 11 11 11 11 11 10 10 11 11 12 11 12 12 12 11 12 12 12 10 9 9 10 12 10 9 11 11 12 10 11
10 10 10 5 5 7 9 11 12 10 9 9 10 10 10 10 9 12 11 12 14 14 13 12 12 12 12 10 8 6 6 5 4 4 3 3 4 5 7 8 9 10 10 9 7 8 8 9 9 9 9 10 10 10 11 11 11 11 11 11 11 11 11 12 11 12 12 12 12 11 12 12 12 11 10 10 9 10 11 10 11 11 11 11 11
11 9 6 8 8 8 10 11 10 10 12 12 11 11 10 9 10 9 9 14 15 12 11 12 12 12 11 10 9 9 7 5 5 2 2 3 5 6 7 10 13 13 12 8 6 8 8 8 9 9 9 10 10 11 11 11 11 12 11 12 12 12 12 13 12 13 12 12 12 12 12 12 11 11 10 10 10 12 11 11 9 9 10 11 12
7 8 8 9 10 9 10 10 9 9 8 9 8 8 9 9 9 10 8 6 8 9 10 10 10 11 9 9 9 8 6 6 4 3 2 3 5 8 8 7 11 12 10 5 8 8 8 9 9 10 10 10 10 11 11 11 11 12 12 12 12 12 13 13 13 12 12 12 12 11 11 10 10 11 11 11 11 11 11 10 9 9 10 11 11
8 9 12 10 10 11 10 10 10 9 9 9 10 9 7 8 9 8 8 7 6 5 4 3 2 3 4 5 5 5 6 6 5 2 1 3 7 9 10 6 4 3 3 7 9 9 9 9 9 10 11 10 11 11 11 12 12 12 12 12 12 13 12 12 12 12 12 12 12 11 11 11 10 10 11 11 10 11 10 10 9 9 9 9 9
10 9 10 12 10 10 11 10 10 9 9 9 8 7 8 8 8 8 8 8 8 7 5 4 4 4 2 4 6 6 6 4 5 5 4 2 8 7 4 6 6 6 7 7 8 8 9 9 10 10 11 11 10 11 11 12 12 12 12 13 13 13 13 12 12 11 11 12 12 12 12 11 10 9 10 10 10 11 9 9 9 8 8 9 9
10 9 10 10 10 11 10 10 10 9 8 8 9 10 8 8 8 7 7 7 5 6 6 7 7 5 5 6 6 6 7 5 7 7 8 11 11 6 5 8 8 7 7 8 8 9 9 9 9 9 10 10 11 11 11 12 12 13 13 13 12 13 13 12 12 13 14 13 13 11 11 11 8 9 8 9 9 8 9 8 8 8 7 8 7
11 10 10 10 10 9 9 10 10 9 8 9 10 10 9 8 7 7 6 5 6 5 5 6 6 5 5 4 8 5 6 9 7 6 8 9 7 2 7 6 7 8 8 8 8 9 10 9 9 10 10 10 11 12 12 12 12 12 13 13 12 12 15 14 13 11 11 12 11 11 8 9 10 8 7 9 10 10 9 7 8 9 8 8 8
10 12 13 11 8 7 6 7 8 9 9 9 9 8 5 5 5 4 5 4 4 3 3 5 4 2 1 1 2 3 5 4 3 1 1 2 3 3 6 7 7 8 8 8 9 10 9 10 10 9 9 10 11 12 12 12 12 13 13 13 13 12 12 12 12 11 11 11 10 9 9 9 8 8 8 8 9 9 8 7 7 6 6 7 8
9 7 7 7 5 6 6 5 6 8 8 8 7 5 6 5 4 4 4 4 4 3 3 2 2 2 2 3 3 3 3 3 2 1 1 2 3 4 5 6 7 8 9 9 9 10 10 10 10 10 11 11 11 12 11 12 13 13 13 13 13 13 12 11 12 12 11 11 10 11 10 10 9 8 8 8 7 7 7 7 7 7 7 7 7
6 5 5 5 7 4 5 8 7 7 4 6 6 5 4 4 4 3 3 3 3 2 2 3 4 5 6 5 5 5 3 3 2 2 1 2 3 4 5 5 6 8 8 9 9 10 10 10 10 11 11 11 11 11 11 11 12 12 13 13 13 12 12 12 12 12 12 11 11 10 9 9 8 8 7 6 7 7 6 6 6 6 7 7 6
5 5 5 5 3 2 5 7 6 7 6 4 4 2 4 4 3 3 3 2 2 1 2 1 4 5 7 7 6 7 5 2 2 3 2 2 3 4 5 5 6 7 8 8 9 10 10 10 10 11 11 12 11 11 11 12 12 13 13 13 13 12 11 12 12 11 11 11 11 10 9 8 8 8 6 6 4 5 5 5 5 5 5 6 6
6 6 5 4 3 4 7 6 6 5 4 4 4 6 5 5 4 4 3 4 3 2 1 1 2 2 4 5 3 7 3 1 2 2 3 3 3 4 5 5 6 7 7 8 9 9 9 10 11 11 11 12 12 11 11 11 11 12 12 13 13 13 13 12 11 11 11 10 10 10 10 9 8 5 3 3 3 3 3 4 3 4 4 5 6
6 6 6 6 5 7 8 7 7 7 6 7 7 6 6 6 5 5 3 3 2 2 2 2 1 1 1 4 3 2 1 1 2 3 3 3 4 4 5 5 6 7 7 8 8 8 9 10 11 11 11 12 10 8 10 10 10 11 12 12 12 13 12 12 12 12 11 10 9 9 9 8 6 4 2 2 3 3 3 4 4 4 5 5 6
6 6 5 5 7 8 8 8 8 6 6 6 4 5 7 6 5 4 3 3 4 3 2 2 1 1 2 2 1 1 1 2 2 2 3 3 4 4 4 5 6 7 7 8 8 9 9 10 11 11 12 12 11 10 11 11 9 11 11 12 12 11 11 12 12 11 10 9 8 8 8 6 5 2 0 1 2 3 3 4 4 6 6 6 6
7 6 6 6 8 8 8 8 8 7 5 5 4 4 5 6 6 6 5 4 3 2 1 1 1 2 2 2 2 3 2 2 2 2 3 4 4 4 4 5 6 7 7 8 8 9 9 10 11 11 12 12 12 11 11 9 10 9 9 10 11 10 10 10 10 9 8 7 7 6 6 5 3 2 1 1 1 2 3 4 5 5 6 6 6
8 7 7 7 8 9 9 8 7 7 7 6 6 6 5 5 5 5 5 4 3 2 1 1 2 2 2 2 3 3 3 2 2 2 3 4 4 5 5 6 6 7 7 7 8 8 9 10 10 11 11 11 11 10 10 11 11 11 10 10 9 10 10 9 8 7 7 7 6 5 4 4 3 2 2 3 3 4 5 5 5 6 6 7 7
7 7 7 8 8 8 8 7 8 8 7 7 7 6 5 5 4 4 3 3 2 2 3 3 3 3 3 3 4 3 4 3 2 3 3 3 4 5 6 6 6 7 7 8 8 8 9 9 10 10 10 9 9 11 11 12 12 12 11 10 10 11 13 14 9 8 7 5 4 5 5 4 3 4 4 4 5 5 6 7 7 7 8 8 8
7 7 8 8 8 8 7 7 7 7 7 6 6 6 6 5 5 4 4 4 4 4 4 4 4 4 4 4 5 5 4 4 3 3 3 3 4 5 5 6 7 7 7 7 8 8 9 9 9 9 9 10 9 11 10 9 11 12 12 10 13 18 17 17 12 11 10 6 5 6 5 5 5 5 5 5 6 6 7 6 6 7 8 8 9
8 8 8 8 8 8 7 7 7 7 7 7 6 6 6 5 5 6 5 5 5 5 4 4 4 4 4 4 5 5 5 5 4 4 4 4 4 5 5 6 7 7 7 7 8 8 8 9 10 10 10 9 9 10 11 8 8 9 10 13 18 18 18 17 15 17 11 6 6 6 7 6 6 6 7 6 6 7 8 7 7 6 7 8 8
9 9 9 9 8 8 7 7 7 7 7 6 6 6 6 6 5 5 6 6 5 5 5 5 5 4 5 4 5 5 5 5 5 5 4 4 5 5 6 6 6 7 7 8 7 8 8 9 10 10 10 9 9 10 10 9 7 9 15 21 19 18 18 17 14 16 17 10 6 7 7 8 7 8 7 7 8 8 8 8 8 8 9 9 8
Wind_Direction
220 219 219 225 231 229 229 229 229 227 225 219 220 214 207 202 198 193 188 191 186 185 188 188 187 186 184 183 182 179 175 174 174 172 170 162 154 143 151 153 152 140 140 146 145 141 106 160 185 214 275 295 306 285 266 287 273 260 267 267 265 259 260 268 274 280 281 278 280 284 291 292 282 280 285 286 287 283 281 281 284 281 278 273 270
235 235 230 229 228 232 237 241 241 237 231 224 221 221 213 209 202 196 195 192 190 191 193 190 191 189 189 188 186 184 182 179 178 181 175 164 156 155 159 159 152 139 149 145 140 158 176 245 305 147 268 291 283 288 280 265 267 261 249 256 271 274 263 276 279 284 288 289 283 286 289 286 282 277 283 290 287 284 280 279 276 273 271 278 271
263 248 251 243 238 237 238 240 241 239 237 235 230 225 220 214 206 202 200 196 195 195 196 192 192 192 191 191 189 188 187 181 181 183 176 175 169 166 166 162 160 160 166 159 175 123 202 238 259 233 228 262 271 270 278 269 277 285 280 277 276 274 276 272 281 282 285 287 290 286 281 281 280 289 286 281 282 288 287 282 278 272 273 267 269
288 274 256 248 252 255 252 253 253 249 242 240 237 230 226 220 212 212 211 205 199 199 198 195 192 194 194 193 191 188 187 182 182 185 182 181 174 169 168 166 169 172 171 178 169 207 228 260 256 273 282 282 284 294 279 278 273 281 283 269 259 260 262 265 262 273 281 284 285 284 287 290 283 277 275 272 274 272 276 284 283 280 276 269 261
30 351 306 299 287 266 255 255 256 259 266 261 246 235 229 227 222 218 216 215 210 200 200 198 195 194 194 195 192 189 189 185 185 183 179 179 177 169 173 169 173 175 175 180 189 225 232 251 283 301 285 291 284 278 296 296 292 288 287 286 281 279 273 265 269 269 274 277 281 280 279 277 279 281 279 281 279 276 276 272 277 285 285 285 287
28 17 357 318 298 294 278 261 259 261 258 260 254 241 243 237 229 222 218 219 215 208 202 198 199 197 194 194 192 190 189 187 187 183 177 176 173 174 173 173 174 178 173 199 190 186 223 245 268 280 294 285 289 292 292 290 289 283 282 287 292 295 289 284 279 276 276 276 277 281 273 274 277 272 276 275 279 284 283 282 280 274 270 269 267
28 15 5 352 342 299 282 279 275 264 250 248 250 247 236 242 239 232 222 218 217 211 206 204 197 201 197 196 194 190 187 185 184 181 175 174 175 174 176 175 177 169 182 181 178 185 214 214 242 251 268 284 286 287 288 287 279 278 275 275 277 277 278 277 276 277 278 280 280 277 280 273 268 277 271 270 273 274 279 282 278 272 270 275 276
26 19 6 354 345 340 330 325 297 272 266 261 258 257 256 253 249 247 239 226 220 216 211 204 188 190 197 197 195 190 187 184 183 174 176 173 174 177 175 179 175 167 169 177 164 192 191 210 220 241 258 293 308 302 297 284 288 283 279 277 275 274 274 274 273 272 272 272 273 278 277 283 280 273 276 268 267 266 263 276 286 293 291 292 287
15 10 360 343 337 323 317 309 294 281 267 263 260 254 249 250 252 249 246 239 228 222 217 198 183 192 193 194 188 184 190 185 176 168 169 177 174 172 174 172 170 172 178 172 190 207 233 219 236 221 32 329 309 284 280 289 284 277 275 277 273 271 269 268 271 271 271 270 273 272 271 272 275 278 276 273 271 284 302 296 285 285 286 280 273
2 355 344 341 313 300 299 292 289 292 286 275 265 257 255 252 249 249 248 244 237 223 214 201 192 186 189 191 186 184 181 180 151 159 167 173 171 160 161 169 178 176 192 207 217 237 259 272 252 178 216 227 232 229 231 238 241 254 274 280 278 274 271 271 270 269 271 273 272 275 274 272 273 275 277 278 284 288 284 278 275 280 281 279 275
349 342 333 328 317 301 292 291 292 292 299 292 282 272 259 248 247 247 246 242 237 235 221 209 202 197 193 185 183 176 167 145 131 126 123 142 159 158 164 164 170 192 204 220 265 266 270 280 296 218 209 220 222 218 230 235 230 235 241 248 261 271 276 274 270 270 273 274 275 272 270 270 268 270 273 279 278 278 280 283 282 282 278 283 284
332 330 323 318 311 310 308 306 302 301 293 290 289 282 271 256 246 239 242 239 233 234 225 217 203 199 193 193 181 168 168 128 130 124 125 129 148 157 162 167 179 204 207 235 255 273 284 287 284 290 281 291 304 287 243 218 221 227 228 234 237 242 249 258 266 268 268 270 269 266 269 268 271 268 270 271 274 275 273 277 280 281 278 273 272
316 316 313 312 312 306 304 303 304 302 298 295 288 275 266 259 248 240 235 232 225 226 223 216 212 202 194 191 178 171 144 137 133 135 133 135 141 190 171 164 202 197 220 240 262 279 284 287 287 286 295 236 253 275 291 289 227 209 222 228 231 233 236 234 241 254 269 268 269 270 267 275 274 270 271 277 283 281 281 273 271 274 276 273 272
315 309 306 305 307 303 296 297 295 294 293 286 279 273 261 253 249 246 247 237 235 235 226 221 219 214 200 187 175 158 140 142 139 140 141 146 159 218 160 159 215 229 232 246 249 266 274 282 291 293 295 297 294 287 296 296 300 290 262 252 261 231 218 225 229 231 234 247 258 263 265 266 270 275 279 279 274 270 274 274 274 274 273 274 281
317 310 303 302 301 298 295 291 288 286 285 282 276 267 261 255 246 242 239 241 236 230 225 222 213 206 192 172 162 144 136 143 141 144 145 151 159 218 166 171 219 225 231 247 253 261 271 270 276 283 289 292 293 302 296 296 296 290 280 276 269 271 271 254 234 227 224 228 242 256 265 267 269 270 270 270 271 274 271 273 275 275 274 277 276
312 312 305 302 299 298 296 290 283 280 276 272 266 261 255 250 247 242 241 243 239 230 226 217 202 187 172 160 144 133 139 148 144 146 146 150 167 202 184 197 230 238 251 260 260 264 266 270 275 280 287 290 298 299 262 293 293 288 283 278 275 273 268 259 259 279 292 287 274 270 270 286 308 306 306 305 305 302 305 293 275 265 268 267 265
309 308 304 301 302 298 294 290 285 280 277 273 266 258 253 250 245 242 238 236 234 225 221 207 188 172 160 145 128 129 141 150 144 147 152 158 181 206 185 232 246 245 259 269 269 269 267 268 274 287 288 287 308 46 49 308 290 287 286 284 282 278 273 272 260 235 228 240 253 267 275 279 281 285 286 284 283 290 287 274 262 266 263 262 262
304 302 301 302 299 297 293 289 284 278 275 270 267 261 253 247 246 237 240 236 230 223 212 192 166 153 142 135 138 140 145 153 154 155 155 169 208 232 232 254 265 272 270 269 271 275 275 250 251 272 276 280 345 74 9 303 289 289 289 288 285 281 277 278 277 261 219 215 230 240 247 254 258 261 268 272 273 268 262 256 256 259 260 258 264
296 296 297 297 295 292 291 288 284 279 275 272 268 264 255 249 245 242 242 240 229 213 192 169 139 119 112 116 119 125 139 149 154 149 159 174 216 229 261 274 282 282 292 289 286 287 286 275 230 232 262 277 296 295 292 267 278 293 293 289 285 279 279 281 278 278 277 272 256 239 235 233 237 244 247 243 246 252 254 255 254 251 254 257 258
289 288 286 286 286 286 282 279 275 274 273 272 269 263 259 253 245 242 236 230 213 188 150 138 124 113 113 115 123 130 139 155 160 154 160 176 244 321 312 297 288 293 293 297 300 292 290 287 280 223 218 241 324 277 247 241 270 289 291 284 281 279 283 282 279 284 282 276 273 272 274 275 271 259 258 254 241 235 242 247 245 244 249 251 252
282 281 280 278 279 281 281 278 274 271 270 270 269 263 254 254 247 229 221 203 169 138 121 114 114 116 116 116 114 122 137 152 148 155 150 147 105 281 280 288 296 304 301 302 292 292 292 294 294 16 120 149 184 207 243 254 270 284 284 277 272 284 299 286 285 290 280 276 272 272 270 269 265 261 258 255 254 252 248 243 242 241 244 247 247
279 275 272 272 276 278 278 274 271 268 266 267 265 261 256 250 238 220 189 147 136 128 127 127 129 130 133 136 137 136 105 106 147 135 139 140 150 242 274 308 9 308 298 288 289 287 294 297 294 37 53 19 347 317 296 284 277 280 278 276 283 285 279 277 280 278 274 269 268 266 265 261 259 258 256 256 255 251 249 248 244 242 240 243 246
273 271 269 270 271 273 274 271 265 261 260 262 260 254 241 226 212 192 151 141 142 142 142 139 130 128 132 138 138 127 123 104 125 149 148 164 169 195 211 298 31 276 284 288 293 292 291 297 294 21 341 329 316 307 298 289 283 279 278 276 273 271 270 274 272 269 265 263 261 260 259 258 258 258 257 257 255 253 251 248 247 247 246 244 243
267 266 263 261 262 266 269 268 263 258 257 254 251 228 194 183 177 156 144 148 147 140 137 129 134 137 139 135 129 128 126 132 123 122 151 169 176 191 198 219 244 271 294 289 289 293 292 300 324 331 311 298 286 280 280 280 283 282 277 274 271 270 273 272 267 262 262 259 257 254 252 251 252 253 253 254 254 252 251 250 248 247 247 249 249
260 258 256 254 256 263 267 266 262 262 258 246 223 197 181 170 161 160 144 147 145 141 142 134 137 137 132 137 134 130 136 133 135 150 160 169 196 211 219 232 237 236 265 286 286 291 299 295 283 278 280 280 278 273 268 262 255 255 259 261 264 274 272 267 264 261 258 255 253 252 251 250 251 253 256 258 257 254 252 252 249 248 247 248 249
257 256 255 254 256 260 264 260 256 258 243 193 204 198 182 166 160 155 147 147 143 142 144 141 136 134 130 128 130 132 138 136 137 157 177 188 213 205 224 221 232 226 236 264 268 269 265 263 265 262 263 268 279 295 304 299 296 287 280 275 273 272 268 263 260 260 260 261 259 257 257 258 257 257 257 257 256 253 250 249 248 246 245 246 250
257 255 255 257 258 256 253 252 253 247 212 207 195 187 172 165 156 150 136 134 123 113 108 123 128 123 128 127 120 122 117 115 174 127 26 343 315 241 211 222 213 221 235 260 255 267 287 301 301 291 275 271 265 259 259 264 264 265 272 275 284 283 278 273 272 271 269 266 263 261 261 262 264 263 258 254 252 250 245 246 246 246 243 243 244
259 259 256 252 248 243 242 218 215 206 187 184 176 168 170 165 150 135 141 142 136 124 118 107 104 109 111 119 123 130 142 164 101 46 25 321 309 306 304 301 304 322 311 314 323 311 300 289 277 285 300 301 298 307 305 306 301 297 291 289 287 285 280 274 270 271 269 268 268 268 266 265 262 260 258 254 252 249 244 241 239 242 240 241 240
251 252 252 248 241 239 239 215 197 181 167 161 143 150 149 112 95 103 110 119 117 119 121 114 117 129 135 137 141 145 157 128 86 59 39 22 309 314 315 324 333 319 359 359 312 300 299 304 309 305 307 309 308 305 305 304 302 297 293 290 288 286 285 285 282 278 274 273 271 269 267 265 263 261 258 254 250 249 245 244 238 239 236 232 239
248 246 244 243 242 231 231 205 169 154 145 131 110 73 36 44 92 129 122 63 115 132 142 137 144 148 134 103 58 130 111 85 108 146 177 203 221 253 284 303 304 302 309 306 293 293 300 310 312 310 308 309 310 307 306 307 305 301 296 292 288 284 281 280 278 277 275 273 272 272 270 267 264 260 257 256 256 250 241 231 236 228 232 231 234
248 246 240 239 237 225 189 164 153 145 140 133 133 127 117 64 41 41 67 120 101 91 86 82 75 84 112 121 80 74 87 103 134 152 181 220 255 268 279 290 295 295 293 302 299 310 318 317 313 310 307 307 306 305 305 305 304 303 302 299 293 287 283 279 277 278 277 275 271 266 264 262 262 260 253 250 251 253 250 229 230 230 232 228 230
246 242 239 226 127 137 162 152 145 139 138 142 135 125 112 104 78 44 47 84 93 99 99 97 93 93 97 111 124 112 123 135 153 191 218 265 272 283 275 268 266 266 274 273 275 309 322 318 315 312 310 305 304 307 306 305 304 304 304 301 297 293 290 284 282 282 281 278 274 271 267 265 263 261 257 254 249 250 247 240 232 229 231 232 232
233 233 205 134 134 131 136 141 138 141 144 135 134 130 120 114 112 105 66 54 62 67 83 93 94 93 85 71 73 99 118 136 158 200 272 279 272 268 277 273 262 252 251 272 319 323 320 319 314 312 309 306 307 307 306 303 303 304 305 304 300 298 293 290 287 284 280 275 273 270 268 266 263 261 258 254 250 249 245 241 236 231 230 232 234
167 146 138 134 135 133 129 127 124 121 101 104 112 125 124 118 119 120 119 112 87 66 53 58 81 86 79 92 104 114 137 159 186 208 253 279 308 288 275 273 258 253 249 305 324 323 318 317 315 314 312 310 309 307 306 305 305 303 302 300 298 297 295 294 290 285 284 280 276 273 269 265 264 263 261 256 250 246 243 237 231 229 228 230 233
121 119 124 129 127 127 128 118 113 108 116 126 129 123 111 120 126 127 130 129 125 125 131 109 90 58 120 128 137 157 174 188 184 201 294 302 282 284 286 277 321 348 289 327 330 321 321 317 316 316 315 313 313 311 308 308 306 304 302 301 300 299 297 294 290 287 284 283 280 277 273 272 269 265 261 258 254 246 237 233 229 225 227 229 229
113 116 114 114 111 109 109 107 111 117 119 112 117 119 127 133 135 136 136 133 136 141 147 154 158 113 88 103 166 196 198 199 197 194 227 262 267 273 297 6 336 345 337 335 332 326 318 318 316 316 316 315 315 313 311 309 306 305 304 303 300 298 297 293 290 288 287 287 284 279 274 270 264 258 256 252 248 245 242 236 232 228 224 226 230
114 109 108 102 105 109 107 108 108 122 133 146 149 148 150 147 146 146 145 145 149 154 153 149 149 154 196 189 191 213 215 213 212 209 204 221 247 251 343 357 351 338 338 336 332 329 324 323 323 318 318 317 316 315 314 310 307 305 302 300 298 296 293 291 291 292 290 288 285 280 270 268 259 257 250 253 246 238 233 230 229 229 223 221 221
81 87 93 93 96 98 114 131 140 150 159 159 154 153 154 153 149 150 155 157 162 161 159 158 170 178 185 176 182 213 198 206 215 238 229 241 243 316 0 351 353 341 340 337 337 331 330 327 326 324 319 317 317 318 318 314 310 306 304 301 298 294 289 290 287 284 285 286 283 279 268 268 268 258 249 245 244 240 234 223 223 226 221 219 220
71 67 70 76 93 116 122 127 145 160 157 158 151 150 146 147 152 159 161 157 165 165 167 167 187 168 125 133 180 186 217 232 229 262 13 334 360 1 355 354 347 348 339 337 336 336 333 333 327 325 319 317 318 317 316 313 310 307 305 303 299 297 297 298 296 293 290 287 284 279 276 274 269 266 258 248 240 233 228 220 210 211 212 215 216
76 81 67 71 95 87 121 139 162 151 141 144 143 141 144 154 167 165 161 160 169 169 168 165 144 99 67 36 14 344 320 319 341 323 342 353 9 4 350 347 346 341 340 335 337 336 334 330 330 323 321 319 319 317 314 311 310 309 307 306 305 301 298 297 298 297 295 291 289 288 284 280 277 272 265 247 239 228 224 218 215 209 215 225 225
72 79 87 71 66 109 147 159 143 125 125 126 136 148 156 166 163 159 157 157 163 156 146 129 100 80 59 43 24 346 309 307 333 329 0 5 6 353 347 339 338 341 338 339 335 335 334 332 329 327 323 323 320 316 313 311 310 310 310 309 308 304 301 301 301 299 296 294 294 293 291 292 290 283 264 244 229 230 224 217 216 214 214 222 222
82 85 77 91 94 172 121 87 86 80 85 87 101 115 130 140 142 144 140 151 134 140 129 116 102 100 87 50 24 334 297 327 355 351 2 9 352 349 344 334 333 341 338 337 337 335 337 333 330 329 328 324 323 317 316 315 315 313 312 311 310 308 306 305 305 301 299 299 300 296 295 294 288 282 266 251 234 217 223 220 217 215 208 200 198
76 80 83 91 99 88 85 83 81 83 79 80 80 72 82 100 105 99 90 72 69 67 78 85 83 89 96 84 12 285 275 13 8 8 12 351 343 335 333 331 334 336 334 334 336 340 335 334 333 332 330 326 324 323 319 315 314 313 312 311 311 310 309 307 305 303 306 304 302 299 299 295 293 289 261 235 235 221 215 203 192 193 190 187 177
77 77 78 79 75 71 67 72 69 68 66 63 61 61 68 77 69 71 75 72 56 55 59 55 51 43 74 141 181 264 341 347 17 17 9 341 334 329 329 332 331 329 328 332 338 342 336 334 334 332 329 328 325 319 318 317 316 316 314 314 311 310 310 311 310 309 310 306 302 302 302 302 302 303 261 207 194 178 176 168 167 170 168 162 154
76 84 88 87 77 78 76 75 78 80 82 83 76 70 59 59 62 57 52 57 51 41 35 30 26 25 34 27 3 333 341 6 13 16 357 342 332 327 325 328 326 327 324 330 340 340 337 336 335 335 333 332 333 326 324 320 316 318 317 313 311 308 310 310 308 306 302 298 304 310 310 312 312 316 315 196 194 184 167 160 159 147 144 142 142
63 68 72 79 79 77 77 75 70 68 63 63 67 65 60 58 54 49 44 46 38 11 23 29 24 33 22 1 339 334 356 8 15 10 350 340 336 332 328 325 324 321 322 329 334 336 340 338 337 337 336 333 333 330 324 320 321 321 316 317 312 307 304 305 304 302 300 305 313 310 310 321 341 357 38 95 117 130 134 137 139 140 134 128 125
60 63 62 69 72 71 66 62 62 62 62 58 58 57 56 54 57 65 62 51 33 24 10 17 23 28 12 355 341 344 355 2 10 358 348 336 333 330 330 326 322 321 322 324 328 337 343 338 341 341 340 337 331 328 328 329 330 329 326 321 314 314 316 318 317 312 309 313 323 329 328 333 1 20 62 79 92 102 111 118 122 120 117 117 117
59 60 59 63 70 75 76 77 80 77 75 71 67 67 64 61 62 57 50 52 48 34 24 30 29 26 7 354 344 342 353 350 357 357 343 339 338 335 335 327 322 322 322 323 333 341 340 340 341 344 343 337 336 335 337 337 336 336 332 329 328 329 335 338 334 331 324 326 346 355 359 14 39 46 55 68 79 88 97 100 105 107 106 107 106
57 61 63 60 65 68 73 75 73 73 76 77 75 71 66 60 54 50 49 41 34 24 21 20 24 18 11 3 350 345 346 346 352 351 347 340 337 339 340 334 324 322 322 329 333 338 339 342 342 347 347 346 339 340 340 333 344 343 339 335 338 342 348 350 350 349 339 355 10 16 17 35 40 37 37 57 72 77 80 79 82 91 98 101 106
63 63 69 71 73 72 74 75 75 76 73 74 73 72 67 63 55 49 42 34 31 26 24 21 16 15 8 5 358 350 347 344 344 346 343 340 340 343 343 338 331 328 328 329 331 338 343 343 346 352 353 358 348 341 341 333 335 339 343 346 347 351 358 359 357 355 358 17 14 33 34 36 34 57 58 50 50 67 75 75 74 69 72 76 81
63 64 64 65 67 70 69 72 72 73 72 74 72 71 65 60 54 47 38 35 29 24 18 12 12 12 12 11 1 349 345 341 341 339 338 341 344 345 347 344 336 333 329 329 335 343 345 344 350 353 358 4 355 349 350 341 339 340 350 353 354 356 3 8 9 1 3 8 32 39 44 39 46 46 50 53 63 68 73 75 82 88 93 96 94